Regional Weather Roundup
Issued by NWS

Home | Current Version | Previous Version | Graphics & Text | Print | Product List | Glossary On
Versions: 1 2 3 4 5 6 7 8 9 10 11 12 13 14 15 16 17 18 19 20 21 22 23 24 25 26 27 28 29 30 31 32 33 34 35 36 37 38 39 40 41 42 43 44 45 46 47 48 49 50
796
ASUS43 KBIS 281002
RWRND

NORTH DAKOTA REGIONAL WEATHER ROUNDUP
NATIONAL WEATHER SERVICE BISMARCK ND
500 AM CDT FRI APR 28 2017

NOTE: "FAIR" INDICATES FEW OR NO CLOUDS BELOW 12,000 FEET WITH NO
SIGNIFICANT WEATHER AND/OR OBSTRUCTIONS TO VISIBILITY.


NDZ001>003-009>011-017-281100-
NORTHWEST NORTH DAKOTA

CITY           SKY/WX    TMP DP  RH WIND       PRES   REMARKS
WILLISTON      FAIR      26  20  77 CALM      29.93R
MINOT          FAIR      27  23  85 SW6       29.94R
MINOT AFB      CLEAR     23  21  91 W3        29.93S
$$

NDZ018>021-031>035-040>046-281100-
SOUTHWEST NORTH DAKOTA

CITY           SKY/WX    TMP DP  RH WIND       PRES   REMARKS
BISMARCK       FAIR      28  24  85 NE3       29.93R
DICKINSON      FAIR      25  17  72 E7        29.87R WCI  17
GARRISON         N/A     24  21  88 N6        29.92S WCI  17
HETTINGER ARPT PTCLDY    28  22  78 NE10      29.87R WCI  19
$$

NDZ004>008-012>016-024-026-027-054-281100-
NORTHEAST NORTH DAKOTA

CITY           SKY/WX    TMP DP  RH WIND       PRES   REMARKS
GRAND FORKS    PTCLDY    30  28  92 NW6       29.90R
GRND FRKS AFB  CLEAR     30  26  86 NW7       29.90R
DEVILS LAKE    FAIR      27  23  85 NW8       29.92R WCI  19
$$

NDZ022-023-025-028>030-036>039-047>053-281100-
SOUTHEAST NORTH DAKOTA

CITY           SKY/WX    TMP DP  RH WIND       PRES   REMARKS
FARGO          CLEAR     27  25  92 W7        29.89R WCI  19
JAMESTOWN      FAIR      26  24  92 NW5       29.90R
$$





USA.gov is the U.S. government's official web portal to all federal, state and local government web resources and services.